,,PressureMeas_1m,,PRMeasQMR101_1,,RHStat155_1m_1,,SRMeasQMS101R_1m,,TAStat155_1m_1,,GenWind_1,,GenWind_1,
2017-04-17, 00:00:07,VALID,918.57,VALID,0.0,VALID,98.362,VALID,-0.03,VALID,20.053,VALID,268.0,VALID,0.016,
2017-04-17, 00:01:07,VALID,918.585,VALID,0.0,VALID,98.294,VALID,-0.009,VALID,20.0,VALID,271.0,VALID,0.0,
2017-04-17, 00:02:07,VALID,918.602,VALID,0.0,VALID,98.212,VALID,-0.006,VALID,19.925,VALID,271.0,VALID,0.0,
2017-04-17, 00:03:07,VALID,918.618,VALID,0.0,VALID,98.17,VALID,-0.002,VALID,19.88,VALID,271.0,VALID,0.0,
2017-04-17, 00:04:07,VALID,918.619,VALID,0.0,VALID,98.206,VALID,-0.01,VALID,19.848,VALID,271.0,VALID,0.0,
2017-04-17, 00:05:07,VALID,918.619,VALID,0.0,VALID,98.109,VALID,-0.007,VALID,19.756,VALID,271.0,VALID,0.0,
2017-04-17, 00:06:07,VALID,918.6,VALID,0.0,VALID,98.07,VALID,0.014,VALID,19.682,VALID,271.0,VALID,0.0,
2017-04-17, 00:07:07,VALID,918.59,VALID,0.0,VALID,98.11,VALID,0.006,VALID,19.667,VALID,271.0,VALID,0.0,
2017-04-17, 00:08:07,VALID,918.569,VALID,0.0,VALID,98.188,VALID,0.013,VALID,19.679,VALID,271.0,VALID,0.0,
2017-04-17, 00:09:07,VALID,918.542,VALID,0.0,VALID,98.2,VALID,-0.004,VALID,19.659,VALID,271.0,VALID,0.0,
2017-04-17, 00:10:07,VALID,918.519,VALID,0.0,VALID,98.235,VALID,-0.002,VALID,19.679,VALID,271.0,VALID,0.0,
2017-04-17, 00:11:07,VALID,918.51,VALID,0.0,VALID,98.268,VALID,0.005,VALID,19.689,VALID,271.0,VALID,0.0,
2017-04-17, 00:12:07,VALID,918.499,VALID,0.0,VALID,98.208,VALID,0.004,VALID,19.639,VALID,271.0,VALID,0.0,
2017-04-17, 00:13:07,VALID,918.484,VALID,0.0,VALID,98.184,VALID,0.011,VALID,19.609,VALID,271.0,VALID,0.017,
2017-04-17, 00:14:07,VALID,918.476,VALID,0.0,VALID,98.253,VALID,-0.019,VALID,19.641,VALID,271.0,VALID,0.057,
2017-04-17, 00:15:07,VALID,918.473,VALID,0.0,VALID,98.3,VALID,-0.011,VALID,19.659,VALID,271.0,VALID,0.032,
2017-04-17, 00:16:07,VALID,918.467,VALID,0.0,VALID,98.264,VALID,0.007,VALID,19.628,VALID,271.0,VALID,0.012,
2017-04-17, 00:17:07,VALID,918.461,VALID,0.0,VALID,98.273,VALID,0.003,VALID,19.647,VALID,271.0,VALID,0.001,
2017-04-17, 00:18:07,VALID,918.45,VALID,0.0,VALID,98.343,VALID,-0.006,VALID,19.689,VALID,271.0,VALID,0.011,
2017-04-17, 00:19:06,VALID,918.442,VALID,0.0,VALID,98.267,VALID,-0.002,VALID,19.624,VALID,271.0,VALID,0.002,
2017-04-17, 00:20:06,VALID,918.434,VALID,0.0,VALID,98.192,VALID,-0.012,VALID,19.563,VALID,271.0,VALID,0.0,
2017-04-17, 00:21:06,VALID,918.431,VALID,0.0,VALID,98.044,VALID,0.008,VALID,19.45,VALID,190.0,VALID,0.189,
2017-04-17, 00:22:06,VALID,918.424,VALID,0.0,VALID,97.925,VALID,0.001,VALID,19.345,VALID,171.0,VALID,0.391,
2017-04-17, 00:23:06,VALID,918.404,VALID,0.0,VALID,98.149,VALID,-0.026,VALID,19.401,VALID,173.0,VALID,0.491,
2017-04-17, 00:24:06,VALID,918.407,VALID,0.0,VALID,98.322,VALID,-0.015,VALID,19.509,VALID,172.0,VALID,0.352,
2017-04-17, 00:25:06,VALID,918.405,VALID,0.0,VALID,98.429,VALID,-0.012,VALID,19.635,VALID,172.0,VALID,0.098,
2017-04-17, 00:26:06,VALID,918.4,VALID,0.0,VALID,98.462,VALID,0.012,VALID,19.711,VALID,174.0,VALID,0.096,
2017-04-17, 00:27:06,VALID,918.394,VALID,0.0,VALID,98.328,VALID,-0.006,VALID,19.629,VALID,184.0,VALID,0.387,
2017-04-17, 00:28:06,VALID,918.394,VALID,0.0,VALID,98.22,VALID,0.004,VALID,19.56,VALID,169.0,VALID,0.6,
2017-04-17, 00:29:06,VALID,918.393,VALID,0.0,VALID,98.322,VALID,-0.005,VALID,19.592,VALID,169.0,VALID,0.662,
2017-04-17, 00:30:06,VALID,918.4,VALID,0.0,VALID,98.371,VALID,0.013,VALID,19.643,VALID,167.0,VALID,0.634,
2017-04-17, 00:31:06,VALID,918.388,VALID,0.0,VALID,98.387,VALID,-0.02,VALID,19.667,VALID,155.0,VALID,1.053,
2017-04-17, 00:32:06,VALID,918.373,VALID,0.0,VALID,98.396,VALID,-0.01,VALID,19.667,VALID,150.0,VALID,1.033,
2017-04-17, 00:33:06,VALID,918.359,VALID,0.0,VALID,98.379,VALID,-0.01,VALID,19.662,VALID,133.0,VALID,0.911,
2017-04-17, 00:34:06,VALID,918.338,VALID,0.0,VALID,98.385,VALID,-0.013,VALID,19.658,VALID,134.0,VALID,1.066,
2017-04-17, 00:35:06,VALID,918.335,VALID,0.0,VALID,98.445,VALID,-0.024,VALID,19.716,VALID,128.0,VALID,1.094,
2017-04-17, 00:36:06,VALID,918.333,VALID,0.0,VALID,98.476,VALID,-0.006,VALID,19.749,VALID,138.0,VALID,0.769,
2017-04-17, 00:37:06,VALID,918.327,VALID,0.0,VALID,98.499,VALID,-0.013,VALID,19.77,VALID,134.0,VALID,0.764,
2017-04-17, 00:38:06,VALID,918.318,VALID,0.0,VALID,98.478,VALID,-0.016,VALID,19.784,VALID,146.0,VALID,0.802,
2017-04-17, 00:39:06,VALID,918.293,VALID,0.0,VALID,98.467,VALID,-0.01,VALID,19.787,VALID,151.0,VALID,0.75,
2017-04-17, 00:40:06,VALID,918.285,VALID,0.0,VALID,98.507,VALID,-0.004,VALID,19.816,VALID,142.0,VALID,0.826,
2017-04-17, 00:41:06,VALID,918.256,VALID,0.0,VALID,98.506,VALID,-0.006,VALID,19.823,VALID,140.0,VALID,0.877,
2017-04-17, 00:42:06,VALID,918.252,VALID,0.0,VALID,98.493,VALID,-0.001,VALID,19.817,VALID,137.0,VALID,0.763,
2017-04-17, 00:43:06,VALID,918.229,VALID,0.0,VALID,98.474,VALID,-0.003,VALID,19.81,VALID,130.0,VALID,0.76,
2017-04-17, 00:44:06,VALID,918.242,VALID,0.0,VALID,98.488,VALID,-0.001,VALID,19.818,VALID,121.0,VALID,0.726,
2017-04-17, 00:45:06,VALID,918.241,VALID,0.0,VALID,98.476,VALID,0.005,VALID,19.793,VALID,116.0,VALID,0.52,
2017-04-17, 00:46:06,VALID,918.233,VALID,0.0,VALID,98.465,VALID,-0.014,VALID,19.748,VALID,112.0,VALID,0.176,
2017-04-17, 00:47:06,VALID,918.24,VALID,0.0,VALID,98.443,VALID,-0.019,VALID,19.694,VALID,112.0,VALID,0.225,
2017-04-17, 00:48:06,VALID,918.221,VALID,0.0,VALID,98.426,VALID,-0.009,VALID,19.676,VALID,112.0,VALID,0.207,
2017-04-17, 00:49:06,VALID,918.194,VALID,0.0,VALID,98.436,VALID,-0.012,VALID,19.654,VALID,112.0,VALID,0.297,
2017-04-17, 00:50:06,VALID,918.17,VALID,0.0,VALID,98.433,VALID,0.001,VALID,19.632,VALID,112.0,VALID,0.164,
2017-04-17, 00:51:06,VALID,918.141,VALID,0.0,VALID,98.46,VALID,-0.001,VALID,19.641,VALID,112.0,VALID,0.196,
2017-04-17, 00:52:06,VALID,918.104,VALID,0.0,VALID,98.464,VALID,0.013,VALID,19.614,VALID,120.0,VALID,0.256,
2017-04-17, 00:53:06,VALID,918.084,VALID,0.0,VALID,98.45,VALID,0.004,VALID,19.581,VALID,125.0,VALID,0.278,
2017-04-17, 00:54:06,VALID,918.075,VALID,0.0,VALID,98.456,VALID,-0.003,VALID,19.571,VALID,125.0,VALID,0.257,
2017-04-17, 00:55:06,VALID,918.068,VALID,0.0,VALID,98.437,VALID,-0.007,VALID,19.53,VALID,125.0,VALID,0.365,
2017-04-17, 00:56:06,VALID,918.062,VALID,0.0,VALID,98.436,VALID,-0.003,VALID,19.508,VALID,125.0,VALID,0.46,
2017-04-17, 00:57:06,VALID,918.052,VALID,0.0,VALID,98.477,VALID,-0.004,VALID,19.511,VALID,124.0,VALID,0.466,
2017-04-17, 00:58:06,VALID,918.038,VALID,0.0,VALID,98.467,VALID,-0.007,VALID,19.512,VALID,119.0,VALID,0.446,
2017-04-17, 00:59:06,VALID,918.024,VALID,0.0,VALID,98.483,VALID,-0.013,VALID,19.494,VALID,118.0,VALID,0.307,
2017-04-17, 01:00:06,VALID,917.998,VALID,0.0,VALID,98.509,VALID,0.002,VALID,19.493,VALID,110.0,VALID,0.3,
2017-04-17, 01:01:06,VALID,917.985,VALID,0.0,VALID,98.491,VALID,0.009,VALID,19.473,VALID,107.0,VALID,0.251,
2017-04-17, 01:02:06,VALID,917.974,VALID,0.0,VALID,98.462,VALID,0.01,VALID,19.429,VALID,108.0,VALID,0.245,
2017-04-17, 01:03:06,VALID,917.963,VALID,0.0,VALID,98.432,VALID,-0.005,VALID,19.355,VALID,109.0,VALID,0.27,
2017-04-17, 01:04:06,VALID,917.948,VALID,0.0,VALID,98.381,VALID,0.002,VALID,19.287,VALID,109.0,VALID,0.378,
2017-04-17, 01:05:06,VALID,917.949,VALID,0.0,VALID,98.448,VALID,0.006,VALID,19.315,VALID,111.0,VALID,0.572,
2017-04-17, 01:06:06,VALID,917.939,VALID,0.0,VALID,98.504,VALID,-0.003,VALID,19.354,VALID,123.0,VALID,0.703,
2017-04-17, 01:07:06,VALID,917.939,VALID,0.0,VALID,98.527,VALID,0.005,VALID,19.379,VALID,123.0,VALID,0.738,
2017-04-17, 01:08:06,VALID,917.935,VALID,0.0,VALID,98.519,VALID,-0.008,VALID,19.363,VALID,137.0,VALID,0.675,
2017-04-17, 01:09:06,VALID,917.906,VALID,0.0,VALID,98.514,VALID,-0.018,VALID,19.347,VALID,145.0,VALID,0.774,
2017-04-17, 01:10:06,VALID,917.889,VALID,0.0,VALID,98.536,VALID,-0.005,VALID,19.38,VALID,144.0,VALID,0.774,
2017-04-17, 01:11:06,VALID,917.859,VALID,0.0,VALID,98.573,VALID,-0.009,VALID,19.434,VALID,137.0,VALID,0.68,
2017-04-17, 01:12:06,VALID,917.829,VALID,0.0,VALID,98.569,VALID,-0.005,VALID,19.423,VALID,137.0,VALID,0.756,
2017-04-17, 01:13:06,VALID,917.798,VALID,0.0,VALID,98.593,VALID,0.002,VALID,19.448,VALID,127.0,VALID,0.734,
2017-04-17, 01:14:06,VALID,917.785,VALID,0.0,VALID,98.59,VALID,0.008,VALID,19.471,VALID,125.0,VALID,0.617,
2017-04-17, 01:15:06,VALID,917.774,VALID,0.0,VALID,98.573,VALID,-0.0,VALID,19.482,VALID,124.0,VALID,0.491,
2017-04-17, 01:16:06,VALID,917.788,VALID,0.0,VALID,98.579,VALID,0.003,VALID,19.487,VALID,123.0,VALID,0.245,
2017-04-17, 01:17:06,VALID,917.796,VALID,0.0,VALID,98.544,VALID,-0.002,VALID,19.453,VALID,121.0,VALID,0.055,
2017-04-17, 01:18:06,VALID,917.812,VALID,0.0,VALID,98.525,VALID,-0.015,VALID,19.407,VALID,121.0,VALID,0.0,
2017-04-17, 01:19:06,VALID,917.829,VALID,0.0,VALID,98.53,VALID,-0.001,VALID,19.393,VALID,121.0,VALID,0.002,
2017-04-17, 01:20:06,VALID,917.83,VALID,0.0,VALID,98.513,VALID,-0.019,VALID,19.376,VALID,122.0,VALID,0.004,
2017-04-17, 01:21:06,VALID,917.848,VALID,0.0,VALID,98.526,VALID,-0.005,VALID,19.372,VALID,150.0,VALID,0.056,
2017-04-17, 01:22:06,VALID,917.835,VALID,0.0,VALID,98.548,VALID,-0.005,VALID,19.393,VALID,155.0,VALID,0.088,
2017-04-17, 01:23:06,VALID,917.848,VALID,0.0,VALID,98.565,VALID,0.003,VALID,19.426,VALID,172.0,VALID,0.246,
2017-04-17, 01:24:06,VALID,917.844,VALID,0.0,VALID,98.61,VALID,-0.014,VALID,19.441,VALID,173.0,VALID,0.325,
2017-04-17, 01:25:06,VALID,917.852,VALID,0.0,VALID,98.58,VALID,-0.014,VALID,19.428,VALID,173.0,VALID,0.216,
2017-04-17, 01:26:06,VALID,917.86,VALID,0.0,VALID,98.568,VALID,-0.013,VALID,19.431,VALID,177.0,VALID,0.211,
2017-04-17, 01:27:06,VALID,917.868,VALID,0.0,VALID,98.569,VALID,-0.03,VALID,19.438,VALID,173.0,VALID,0.217,
2017-04-17, 01:28:06,VALID,917.865,VALID,0.0,VALID,98.577,VALID,-0.03,VALID,19.455,VALID,200.0,VALID,0.107,
2017-04-17, 01:29:06,VALID,917.861,VALID,0.0,VALID,98.591,VALID,-0.015,VALID,19.473,VALID,198.0,VALID,0.065,
2017-04-17, 01:30:06,VALID,917.861,VALID,0.0,VALID,98.589,VALID,-0.026,VALID,19.471,VALID,195.0,VALID,0.005,
2017-04-17, 01:31:06,VALID,917.865,VALID,0.0,VALID,98.575,VALID,-0.014,VALID,19.459,VALID,195.0,VALID,0.0,
2017-04-17, 01:32:06,VALID,917.864,VALID,0.0,VALID,98.559,VALID,-0.021,VALID,19.441,VALID,195.0,VALID,0.0,
2017-04-17, 01:33:06,VALID,917.882,VALID,0.0,VALID,98.559,VALID,-0.034,VALID,19.417,VALID,195.0,VALID,0.0,
2017-04-17, 01:34:06,VALID,917.908,VALID,0.0,VALID,98.531,VALID,-0.023,VALID,19.345,VALID,195.0,VALID,0.0,
2017-04-17, 01:35:06,VALID,917.916,VALID,0.0,VALID,98.493,VALID,-0.024,VALID,19.26,VALID,195.0,VALID,0.0,
2017-04-17, 01:36:06,VALID,917.925,VALID,0.0,VALID,98.48,VALID,-0.002,VALID,19.218,VALID,195.0,VALID,0.0,
2017-04-17, 01:37:06,VALID,917.932,VALID,0.0,VALID,98.495,VALID,-0.012,VALID,19.216,VALID,191.0,VALID,0.052,
2017-04-17, 01:38:06,VALID,917.941,VALID,0.0,VALID,98.547,VALID,-0.02,VALID,19.251,VALID,186.0,VALID,0.149,
2017-04-17, 01:39:06,VALID,917.928,VALID,0.0,VALID,98.572,VALID,-0.013,VALID,19.284,VALID,160.0,VALID,0.307,
2017-04-17, 01:40:06,VALID,917.925,VALID,0.0,VALID,98.569,VALID,-0.025,VALID,19.275,VALID,140.0,VALID,0.366,
2017-04-17, 01:41:06,VALID,917.917,VALID,0.0,VALID,98.554,VALID,-0.017,VALID,19.231,VALID,121.0,VALID,0.613,
2017-04-17, 01:42:06,VALID,917.906,VALID,0.0,VALID,98.555,VALID,0.012,VALID,19.217,VALID,120.0,VALID,0.758,
2017-04-17, 01:43:06,VALID,917.903,VALID,0.0,VALID,98.576,VALID,0.006,VALID,19.208,VALID,120.0,VALID,0.809,
2017-04-17, 01:44:06,VALID,917.893,VALID,0.0,VALID,98.538,VALID,0.003,VALID,19.165,VALID,119.0,VALID,0.923,
2017-04-17, 01:45:06,VALID,917.882,VALID,0.0,VALID,98.519,VALID,0.004,VALID,19.121,VALID,118.0,VALID,1.011,
2017-04-17, 01:46:06,VALID,917.867,VALID,0.0,VALID,98.544,VALID,0.013,VALID,19.129,VALID,117.0,VALID,0.932,
2017-04-17, 01:47:06,VALID,917.846,VALID,0.0,VALID,98.567,VALID,0.009,VALID,19.136,VALID,112.0,VALID,0.964,
2017-04-17, 01:48:06,VALID,917.83,VALID,0.0,VALID,98.568,VALID,0.003,VALID,19.13,VALID,110.0,VALID,0.959,
2017-04-17, 01:49:06,VALID,917.836,VALID,0.0,VALID,98.594,VALID,0.002,VALID,19.144,VALID,110.0,VALID,0.982,
2017-04-17, 01:50:06,VALID,917.826,VALID,0.0,VALID,98.6,VALID,-0.002,VALID,19.162,VALID,107.0,VALID,0.967,
2017-04-17, 01:51:06,VALID,917.828,VALID,0.0,VALID,98.64,VALID,0.01,VALID,19.201,VALID,106.0,VALID,0.92,
2017-04-17, 01:52:06,VALID,917.836,VALID,0.0,VALID,98.618,VALID,0.012,VALID,19.201,VALID,109.0,VALID,0.832,
2017-04-17, 01:53:06,VALID,917.836,VALID,0.0,VALID,98.624,VALID,-0.001,VALID,19.211,VALID,115.0,VALID,0.944,
2017-04-17, 01:54:06,VALID,917.831,VALID,0.0,VALID,98.655,VALID,0.014,VALID,19.25,VALID,126.0,VALID,0.967,
2017-04-17, 01:55:06,VALID,917.816,VALID,0.0,VALID,98.66,VALID,-0.006,VALID,19.275,VALID,129.0,VALID,0.932,
2017-04-17, 01:56:06,VALID,917.813,VALID,0.0,VALID,98.654,VALID,0.009,VALID,19.287,VALID,131.0,VALID,1.125,
2017-04-17, 01:57:06,VALID,917.8,VALID,0.0,VALID,98.651,VALID,-0.006,VALID,19.307,VALID,127.0,VALID,1.198,
2017-04-17, 01:58:06,VALID,917.8,VALID,0.0,VALID,98.667,VALID,-0.003,VALID,19.323,VALID,126.0,VALID,1.207,
2017-04-17, 01:59:06,VALID,917.782,VALID,0.0,VALID,98.629,VALID,-0.008,VALID,19.313,VALID,127.0,VALID,1.2,
2017-04-17, 02:00:06,VALID,917.783,VALID,0.0,VALID,98.62,VALID,0.006,VALID,19.304,VALID,116.0,VALID,1.098,
2017-04-17, 02:01:06,VALID,917.783,VALID,0.0,VALID,98.646,VALID,-0.01,VALID,19.317,VALID,118.0,VALID,0.991,
2017-04-17, 02:02:06,VALID,917.769,VALID,0.0,VALID,98.628,VALID,-0.015,VALID,19.318,VALID,112.0,VALID,0.906,
2017-04-17, 02:03:06,VALID,917.767,VALID,0.0,VALID,98.648,VALID,-0.003,VALID,19.34,VALID,105.0,VALID,0.957,
2017-04-17, 02:04:06,VALID,917.78,VALID,0.0,VALID,98.636,VALID,0.003,VALID,19.333,VALID,98.0,VALID,1.036,
2017-04-17, 02:05:06,VALID,917.798,VALID,0.0,VALID,98.604,VALID,0.004,VALID,19.296,VALID,94.0,VALID,0.858,
2017-04-17, 02:06:06,VALID,917.808,VALID,0.0,VALID,98.596,VALID,0.006,VALID,19.275,VALID,91.0,VALID,0.754,
2017-04-17, 02:07:06,VALID,917.822,VALID,0.0,VALID,98.593,VALID,0.002,VALID,19.245,VALID,89.0,VALID,0.747,
2017-04-17, 02:08:06,VALID,917.822,VALID,0.0,VALID,98.568,VALID,-0.003,VALID,19.174,VALID,93.0,VALID,0.747,
2017-04-17, 02:09:06,VALID,917.832,VALID,0.0,VALID,98.585,VALID,0.001,VALID,19.169,VALID,98.0,VALID,0.911,
2017-04-17, 02:10:06,VALID,917.818,VALID,0.0,VALID,98.619,VALID,0.02,VALID,19.206,VALID,104.0,VALID,0.909,
2017-04-17, 02:11:06,VALID,917.812,VALID,0.0,VALID,98.626,VALID,0.001,VALID,19.218,VALID,111.0,VALID,0.948,
2017-04-17, 02:12:06,VALID,917.786,VALID,0.0,VALID,98.633,VALID,0.006,VALID,19.237,VALID,117.0,VALID,1.051,
2017-04-17, 02:13:06,VALID,917.77,VALID,0.0,VALID,98.635,VALID,0.002,VALID,19.23,VALID,122.0,VALID,1.075,
2017-04-17, 02:14:06,VALID,917.762,VALID,0.0,VALID,98.644,VALID,0.021,VALID,19.224,VALID,122.0,VALID,1.038,
2017-04-17, 02:15:06,VALID,917.752,VALID,0.0,VALID,98.629,VALID,0.007,VALID,19.221,VALID,116.0,VALID,1.016,
2017-04-17, 02:16:06,VALID,917.737,VALID,0.0,VALID,98.621,VALID,0.009,VALID,19.192,VALID,113.0,VALID,0.906,
2017-04-17, 02:17:06,VALID,917.73,VALID,0.0,VALID,98.603,VALID,0.009,VALID,19.159,VALID,106.0,VALID,0.699,
2017-04-17, 02:18:06,VALID,917.725,VALID,0.0,VALID,98.616,VALID,0.001,VALID,19.145,VALID,106.0,VALID,0.852,
2017-04-17, 02:19:06,VALID,917.714,VALID,0.0,VALID,98.617,VALID,-0.005,VALID,19.142,VALID,109.0,VALID,0.839,
2017-04-17, 02:20:06,VALID,917.694,VALID,0.0,VALID,98.637,VALID,-0.002,VALID,19.145,VALID,113.0,VALID,0.756,
2017-04-17, 02:21:06,VALID,917.685,VALID,0.0,VALID,98.614,VALID,-0.008,VALID,19.132,VALID,109.0,VALID,0.727,
2017-04-17, 02:22:06,VALID,917.681,VALID,0.0,VALID,98.636,VALID,0.002,VALID,19.152,VALID,109.0,VALID,0.663,
2017-04-17, 02:23:06,VALID,917.663,VALID,0.0,VALID,98.68,VALID,0.011,VALID,19.206,VALID,110.0,VALID,0.452,
2017-04-17, 02:24:06,VALID,917.659,VALID,0.0,VALID,98.694,VALID,0.012,VALID,19.244,VALID,118.0,VALID,0.317,
2017-04-17, 02:25:06,VALID,917.648,VALID,0.0,VALID,98.673,VALID,0.004,VALID,19.259,VALID,145.0,VALID,0.341,
2017-04-17, 02:26:06,VALID,917.655,VALID,0.0,VALID,98.672,VALID,0.011,VALID,19.267,VALID,145.0,VALID,0.377,
2017-04-17, 02:27:06,VALID,917.653,VALID,0.0,VALID,98.7,VALID,-0.001,VALID,19.289,VALID,145.0,VALID,0.305,
2017-04-17, 02:28:06,VALID,917.644,VALID,0.0,VALID,98.693,VALID,0.016,VALID,19.314,VALID,145.0,VALID,0.297,
2017-04-17, 02:29:06,VALID,917.647,VALID,0.0,VALID,98.687,VALID,0.015,VALID,19.329,VALID,145.0,VALID,0.283,
2017-04-17, 02:30:06,VALID,917.634,VALID,0.0,VALID,98.677,VALID,0.002,VALID,19.345,VALID,145.0,VALID,0.221,
2017-04-17, 02:31:06,VALID,917.633,VALID,0.0,VALID,98.672,VALID,0.004,VALID,19.361,VALID,146.0,VALID,0.248,
2017-04-17, 02:32:06,VALID,917.627,VALID,0.0,VALID,98.668,VALID,0.016,VALID,19.353,VALID,150.0,VALID,0.091,
2017-04-17, 02:33:06,VALID,917.627,VALID,0.0,VALID,98.673,VALID,0.006,VALID,19.344,VALID,150.0,VALID,0.0,
2017-04-17, 02:34:06,VALID,917.619,VALID,0.0,VALID,98.663,VALID,0.012,VALID,19.34,VALID,150.0,VALID,0.006,
2017-04-17, 02:35:06,VALID,917.614,VALID,0.0,VALID,98.676,VALID,-0.002,VALID,19.332,VALID,155.0,VALID,0.008,
2017-04-17, 02:36:06,VALID,917.619,VALID,0.0,VALID,98.653,VALID,0.005,VALID,19.306,VALID,168.0,VALID,0.12,
2017-04-17, 02:37:06,VALID,917.629,VALID,0.0,VALID,98.63,VALID,-0.007,VALID,19.272,VALID,171.0,VALID,0.023,
2017-04-17, 02:38:06,VALID,917.644,VALID,0.0,VALID,98.619,VALID,-0.002,VALID,19.235,VALID,171.0,VALID,0.0,
2017-04-17, 02:39:06,VALID,917.654,VALID,0.0,VALID,98.585,VALID,-0.008,VALID,19.143,VALID,164.0,VALID,0.0,
2017-04-17, 02:40:06,VALID,917.674,VALID,0.0,VALID,98.59,VALID,-0.015,VALID,19.124,VALID,131.0,VALID,0.0,
2017-04-17, 02:41:06,VALID,917.679,VALID,0.0,VALID,98.593,VALID,-0.013,VALID,19.124,VALID,121.0,VALID,0.0,
2017-04-17, 02:42:06,VALID,917.679,VALID,0.0,VALID,98.614,VALID,-0.002,VALID,19.145,VALID,114.0,VALID,0.0,
2017-04-17, 02:43:06,VALID,917.666,VALID,0.0,VALID,98.658,VALID,-0.01,VALID,19.17,VALID,114.0,VALID,0.0,
2017-04-17, 02:44:06,VALID,917.68,VALID,0.0,VALID,98.669,VALID,-0.001,VALID,19.211,VALID,114.0,VALID,0.0,
2017-04-17, 02:45:06,VALID,917.663,VALID,0.0,VALID,98.69,VALID,-0.019,VALID,19.251,VALID,114.0,VALID,0.0,
2017-04-17, 02:46:06,VALID,917.67,VALID,0.0,VALID,98.681,VALID,-0.024,VALID,19.28,VALID,110.0,VALID,0.0,
2017-04-17, 02:47:06,VALID,917.676,VALID,0.0,VALID,98.675,VALID,-0.03,VALID,19.237,VALID,97.0,VALID,0.754,
2017-04-17, 02:48:06,VALID,917.678,VALID,0.0,VALID,98.62,VALID,-0.019,VALID,19.152,VALID,89.0,VALID,0.787,
2017-04-17, 02:49:06,VALID,917.669,VALID,0.0,VALID,98.628,VALID,-0.019,VALID,19.139,VALID,82.0,VALID,0.779,
2017-04-17, 02:50:06,VALID,917.662,VALID,0.0,VALID,98.632,VALID,0.004,VALID,19.141,VALID,83.0,VALID,0.643,
2017-04-17, 02:51:06,VALID,917.642,VALID,0.0,VALID,98.663,VALID,-0.006,VALID,19.157,VALID,108.0,VALID,0.437,
2017-04-17, 02:52:06,VALID,917.631,VALID,0.0,VALID,98.614,VALID,-0.014,VALID,19.104,VALID,135.0,VALID,0.551,
2017-04-17, 02:53:06,VALID,917.615,VALID,0.0,VALID,98.63,VALID,0.013,VALID,19.106,VALID,122.0,VALID,0.731,
2017-04-17, 02:54:06,VALID,917.601,VALID,0.0,VALID,98.665,VALID,-0.002,VALID,19.143,VALID,114.0,VALID,0.493,
2017-04-17, 02:55:06,VALID,917.589,VALID,0.0,VALID,98.644,VALID,-0.007,VALID,19.112,VALID,113.0,VALID,0.379,
2017-04-17, 02:56:06,VALID,917.577,VALID,0.0,VALID,98.629,VALID,-0.001,VALID,19.054,VALID,104.0,VALID,0.251,
2017-04-17, 02:57:06,VALID,917.595,VALID,0.0,VALID,98.632,VALID,-0.009,VALID,19.041,VALID,89.0,VALID,0.231,
2017-04-17, 02:58:06,VALID,917.583,VALID,0.0,VALID,98.625,VALID,0.011,VALID,19.047,VALID,68.0,VALID,0.331,
2017-04-17, 02:59:06,VALID,917.576,VALID,0.0,VALID,98.666,VALID,0.012,VALID,19.065,VALID,68.0,VALID,0.303,
2017-04-17, 03:00:06,VALID,917.594,VALID,0.0,VALID,98.653,VALID,0.005,VALID,19.07,VALID,68.0,VALID,0.399,
2017-04-17, 03:01:06,VALID,917.594,VALID,0.0,VALID,98.672,VALID,-0.011,VALID,19.119,VALID,71.0,VALID,0.407,
2017-04-17, 03:02:06,VALID,917.603,VALID,0.0,VALID,98.682,VALID,0.001,VALID,19.138,VALID,101.0,VALID,0.492,
2017-04-17, 03:03:06,VALID,917.602,VALID,0.0,VALID,98.682,VALID,0.013,VALID,19.138,VALID,103.0,VALID,0.617,
2017-04-17, 03:04:06,VALID,917.62,VALID,0.0,VALID,98.667,VALID,-0.012,VALID,19.114,VALID,112.0,VALID,0.621,
2017-04-17, 03:05:06,VALID,917.611,VALID,0.0,VALID,98.646,VALID,-0.005,VALID,19.07,VALID,121.0,VALID,0.733,
2017-04-17, 03:06:06,VALID,917.612,VALID,0.0,VALID,98.638,VALID,-0.003,VALID,19.057,VALID,127.0,VALID,0.857,
2017-04-17, 03:07:06,VALID,917.616,VALID,0.0,VALID,98.691,VALID,0.01,VALID,19.099,VALID,122.0,VALID,0.962,
2017-04-17, 03:08:06,VALID,917.616,VALID,0.0,VALID,98.701,VALID,0.004,VALID,19.147,VALID,116.0,VALID,0.859,
2017-04-17, 03:09:06,VALID,917.623,VALID,0.0,VALID,98.695,VALID,0.012,VALID,19.144,VALID,118.0,VALID,0.882,
2017-04-17, 03:10:06,VALID,917.601,VALID,0.0,VALID,98.691,VALID,0.009,VALID,19.174,VALID,131.0,VALID,0.745,
2017-04-17, 03:11:06,VALID,917.605,VALID,0.0,VALID,98.683,VALID,0.006,VALID,19.177,VALID,132.0,VALID,0.482,
2017-04-17, 03:12:06,VALID,917.612,VALID,0.0,VALID,98.672,VALID,0.013,VALID,19.149,VALID,140.0,VALID,0.407,
2017-04-17, 03:13:06,VALID,917.608,VALID,0.0,VALID,98.691,VALID,0.008,VALID,19.154,VALID,147.0,VALID,0.471,
2017-04-17, 03:14:06,VALID,917.61,VALID,0.0,VALID,98.689,VALID,0.001,VALID,19.182,VALID,144.0,VALID,0.442,
2017-04-17, 03:15:06,VALID,917.598,VALID,0.0,VALID,98.683,VALID,0.005,VALID,19.188,VALID,145.0,VALID,0.316,
2017-04-17, 03:16:06,VALID,917.599,VALID,0.0,VALID,98.706,VALID,0.01,VALID,19.184,VALID,144.0,VALID,0.24,
2017-04-17, 03:17:06,VALID,917.589,VALID,0.0,VALID,98.676,VALID,0.004,VALID,19.172,VALID,143.0,VALID,0.223,
2017-04-17, 03:18:06,VALID,917.586,VALID,0.0,VALID,98.669,VALID,0.018,VALID,19.135,VALID,143.0,VALID,0.158,
2017-04-17, 03:19:06,VALID,917.57,VALID,0.0,VALID,98.68,VALID,0.02,VALID,19.162,VALID,143.0,VALID,0.216,
2017-04-17, 03:20:06,VALID,917.561,VALID,0.0,VALID,98.706,VALID,0.013,VALID,19.209,VALID,143.0,VALID,0.304,
2017-04-17, 03:21:06,VALID,917.563,VALID,0.0,VALID,98.69,VALID,0.006,VALID,19.204,VALID,156.0,VALID,0.29,
2017-04-17, 03:22:06,VALID,917.537,VALID,0.0,VALID,98.677,VALID,0.016,VALID,19.18,VALID,175.0,VALID,0.268,
2017-04-17, 03:23:06,VALID,917.552,VALID,0.0,VALID,98.675,VALID,0.007,VALID,19.169,VALID,175.0,VALID,0.274,
2017-04-17, 03:24:06,VALID,917.533,VALID,0.0,VALID,98.674,VALID,-0.001,VALID,19.175,VALID,171.0,VALID,0.411,
2017-04-17, 03:25:06,VALID,917.529,VALID,0.0,VALID,98.718,VALID,-0.006,VALID,19.232,VALID,164.0,VALID,0.537,
2017-04-17, 03:26:06,VALID,917.52,VALID,0.0,VALID,98.718,VALID,0.001,VALID,19.241,VALID,160.0,VALID,0.387,
2017-04-17, 03:27:06,VALID,917.524,VALID,0.0,VALID,98.68,VALID,-0.011,VALID,19.199,VALID,151.0,VALID,0.297,
2017-04-17, 03:28:06,VALID,917.507,VALID,0.0,VALID,98.671,VALID,0.008,VALID,19.15,VALID,148.0,VALID,0.125,
2017-04-17, 03:29:06,VALID,917.496,VALID,0.0,VALID,98.664,VALID,0.018,VALID,19.13,VALID,140.0,VALID,0.422,
2017-04-17, 03:30:06,VALID,917.477,VALID,0.0,VALID,98.663,VALID,0.018,VALID,19.12,VALID,129.0,VALID,0.311,
2017-04-17, 03:31:06,VALID,917.461,VALID,0.0,VALID,98.669,VALID,0.007,VALID,19.126,VALID,127.0,VALID,0.445,
2017-04-17, 03:32:06,VALID,917.444,VALID,0.0,VALID,98.705,VALID,0.011,VALID,19.18,VALID,128.0,VALID,0.414,
2017-04-17, 03:33:06,VALID,917.426,VALID,0.0,VALID,98.711,VALID,-0.009,VALID,19.206,VALID,129.0,VALID,0.368,
2017-04-17, 03:34:06,VALID,917.415,VALID,0.0,VALID,98.68,VALID,-0.015,VALID,19.185,VALID,121.0,VALID,0.447,
2017-04-17, 03:35:06,VALID,917.409,VALID,0.0,VALID,98.681,VALID,-0.014,VALID,19.189,VALID,119.0,VALID,0.418,
2017-04-17, 03:36:06,VALID,917.411,VALID,0.0,VALID,98.691,VALID,-0.001,VALID,19.206,VALID,116.0,VALID,0.113,
2017-04-17, 03:37:06,VALID,917.395,VALID,0.0,VALID,98.699,VALID,0.015,VALID,19.203,VALID,111.0,VALID,0.335,
2017-04-17, 03:38:06,VALID,917.384,VALID,0.0,VALID,98.657,VALID,0.039,VALID,19.148,VALID,92.0,VALID,0.552,